contact:dominique.lefevre@mio.osupytheas.fr, maurice.libes@osupytheas.fr, didier.mallarino@osupytheas.fr
Project:EMSO http://www.emso-fr.org/EMSO-France
Depth: 2436.0 m
Title:EMSO Ligure Ouest : Data MII capteur AQUADOPP
Date,Latitude,Longitude,X_East,Y_North,Z_Up,Amplitude_X,Amplitude_Y,Amplitude_Z,Batterie,SoundSpeed,Heading,Pitch,Roll,Pressure,TIS,Speed,Direction
, degrees North, degrees East, m.s-1, m.s-1,m.s-1, 1, 1, 1, Volt, m.s-1, degree, degree, degree, dbar, degree_C, m.s-1, degree
2019-08-26T00:00:41,42.805,6.029,0.005,0.006,0.009,103.0,107.0,100.0,13.4,1505.4,325.3,-0.7,1.8,2470.075,13.34,0.007,39.8
2019-08-26T00:03:42,42.805,6.029,-0.021,0.0,-0.031,102.0,107.0,99.0,13.4,1505.4,326.3,-0.7,1.8,2470.09,13.34,0.021,270.0
2019-08-26T00:06:43,42.805,6.029,-0.017,0.004,-0.044,103.0,107.0,99.0,13.4,1505.4,326.7,-0.7,1.8,2470.091,13.34,0.017,283.2
2019-08-26T00:09:44,42.805,6.029,-0.054,0.0,-0.022,103.0,106.0,100.0,13.4,1505.4,325.6,-0.7,1.8,2470.039,13.34,0.053,270.0
2019-08-26T00:12:45,42.805,6.029,-0.011,0.019,-0.002,103.0,107.0,99.0,13.3,1505.4,325.0,-0.7,1.8,2470.115,13.34,0.021,329.9
2019-08-26T00:15:46,42.805,6.029,-0.014,-0.003,-0.05,103.0,109.0,100.0,13.4,1505.4,325.6,-0.7,1.8,2470.059,13.34,0.014,257.9
2019-08-26T00:18:47,42.805,6.029,-0.017,0.0,-0.015,103.0,109.0,100.0,13.4,1505.4,324.8,-0.7,1.8,2470.069,13.34,0.017,270.0
2019-08-26T00:21:48,42.805,6.029,-0.011,0.025,0.01,105.0,108.0,100.0,13.3,1505.4,326.2,-0.7,1.8,2470.068,13.34,0.027,336.3
2019-08-26T00:24:49,42.805,6.029,0.006,0.02,0.023,103.0,109.0,101.0,13.4,1505.4,327.1,-0.7,1.8,2470.089,13.34,0.02,16.7
2019-08-26T00:27:50,42.805,6.029,-0.038,0.01,-0.02,106.0,107.0,99.0,13.4,1505.4,323.6,-0.7,1.9,2470.066,13.34,0.039,284.7
2019-08-26T00:30:51,42.805,6.029,-0.003,0.02,-0.004,104.0,108.0,100.0,13.3,1505.4,327.1,-0.7,1.8,2470.037,13.34,0.02,351.5
2019-08-26T00:33:52,42.805,6.029,0.022,0.005,0.02,103.0,109.0,100.0,13.4,1505.4,327.7,-0.7,1.8,2470.064,13.34,0.022,77.2
2019-08-26T00:36:53,42.805,6.029,0.007,0.024,0.013,102.0,110.0,100.0,13.4,1505.4,327.0,-0.7,1.8,2470.082,13.34,0.025,16.3
2019-08-26T00:39:54,42.805,6.029,-0.014,0.022,-0.027,103.0,109.0,100.0,13.4,1505.4,326.4,-0.8,1.8,2470.074,13.34,0.026,327.5
2019-08-26T00:42:55,42.805,6.029,-0.039,0.016,-0.054,102.0,110.0,100.0,13.4,1505.4,323.1,-0.7,1.9,2470.106,13.34,0.042,292.3
2019-08-26T00:45:56,42.805,6.029,-0.038,0.011,-0.045,104.0,110.0,98.0,13.4,1505.4,324.9,-0.7,1.9,2470.096,13.34,0.039,286.1
2019-08-26T00:48:57,42.805,6.029,-0.019,0.007,-0.056,103.0,110.0,100.0,13.4,1505.4,324.1,-0.7,1.8,2470.099,13.34,0.02,290.2
2019-08-26T00:51:58,42.805,6.029,-0.021,0.001,-0.032,104.0,107.0,101.0,13.4,1505.4,325.9,-0.7,1.8,2470.077,13.34,0.021,272.7
2019-08-26T00:54:59,42.805,6.029,-0.023,0.01,-0.021,103.0,109.0,100.0,13.4,1505.4,325.5,-0.7,1.8,2470.099,13.34,0.025,293.5
2019-08-26T00:58:00,42.805,6.029,-0.034,0.026,-0.035,102.0,109.0,100.0,13.3,1505.4,323.3,-0.7,1.9,2470.078,13.34,0.042,307.4
2019-08-26T01:01:01,42.805,6.029,-0.053,0.017,-0.052,103.0,109.0,102.0,13.4,1505.4,327.0,-0.7,1.8,2470.096,13.34,0.055,287.8
2019-08-26T01:04:02,42.805,6.029,-0.043,0.003,-0.024,103.0,109.0,100.0,13.3,1505.4,325.6,-0.7,1.9,2470.085,13.34,0.043,274.0
2019-08-26T01:07:03,42.805,6.029,-0.005,0.013,-0.027,104.0,110.0,101.0,13.4,1505.4,324.9,-0.7,1.8,2470.095,13.34,0.013,339.0
2019-08-26T01:10:04,42.805,6.029,-0.042,0.0,-0.023,104.0,109.0,101.0,13.4,1505.4,328.4,-0.7,1.9,2470.086,13.35,0.042,270.0
2019-08-26T01:13:05,42.805,6.029,-0.007,-0.005,-0.036,102.0,110.0,99.0,13.3,1505.4,325.0,-0.7,1.8,2470.107,13.35,0.008,234.5
2019-08-26T01:16:06,42.805,6.029,-0.018,0.011,-0.039,104.0,109.0,100.0,13.4,1505.4,326.2,-0.8,1.8,2470.071,13.35,0.021,301.4
2019-08-26T01:19:07,42.805,6.029,-0.031,0.015,-0.02,107.0,107.0,100.0,13.4,1505.4,322.7,-0.7,1.8,2470.104,13.35,0.034,295.8
2019-08-26T01:22:08,42.805,6.029,-0.031,0.028,-0.006,103.0,109.0,100.0,13.4,1505.4,326.4,-0.7,1.8,2470.12,13.35,0.041,312.1
2019-08-26T01:25:09,42.805,6.029,0.0,0.011,-0.03,102.0,108.0,99.0,13.4,1505.4,327.7,-0.7,1.8,2470.105,13.35,0.011,0.0
2019-08-26T01:28:10,42.805,6.029,-0.024,0.01,-0.052,104.0,110.0,100.0,13.3,1505.4,328.5,-0.7,1.9,2470.044,13.35,0.026,292.6
2019-08-26T01:31:11,42.805,6.029,-0.005,0.001,-0.023,102.0,109.0,99.0,13.3,1505.4,324.8,-0.7,1.8,2470.061,13.35,0.005,281.3
2019-08-26T01:34:12,42.805,6.029,-0.005,0.004,-0.002,104.0,108.0,100.0,13.4,1505.4,324.8,-0.7,1.8,2470.121,13.35,0.006,308.7
2019-08-26T01:37:13,42.805,6.029,-0.004,0.032,-0.009,105.0,108.0,99.0,13.4,1505.4,325.5,-0.7,1.8,2470.131,13.35,0.032,352.9
2019-08-26T01:40:14,42.805,6.029,-0.018,0.009,-0.037,102.0,109.0,100.0,13.3,1505.4,324.0,-0.7,1.8,2470.097,13.35,0.02,296.6
2019-08-26T01:43:15,42.805,6.029,-0.004,0.01,-0.035,102.0,108.0,100.0,13.3,1505.4,324.9,-0.7,1.8,2470.107,13.35,0.01,338.2
2019-08-26T01:46:16,42.805,6.029,-0.003,0.001,-0.045,103.0,110.0,99.0,13.3,1505.4,324.3,-0.7,1.8,2470.091,13.35,0.003,288.4
2019-08-26T01:49:17,42.805,6.029,-0.017,-0.016,-0.029,104.0,108.0,98.0,13.3,1505.4,326.4,-0.7,1.8,2470.093,13.35,0.023,226.7
2019-08-26T01:52:18,42.805,6.029,-0.043,-0.01,-0.056,105.0,109.0,99.0,13.4,1505.4,323.7,-0.7,1.9,2470.144,13.35,0.044,256.9
2019-08-26T01:55:19,42.805,6.029,-0.013,0.024,-0.028,103.0,110.0,100.0,13.3,1505.4,326.0,-0.7,1.8,2470.098,13.35,0.027,331.6
2019-08-26T01:58:20,42.805,6.029,-0.009,0.023,-0.006,105.0,108.0,100.0,13.4,1505.4,327.6,-0.7,1.9,2470.075,13.35,0.024,338.6
2019-08-26T02:01:21,42.805,6.029,-0.017,0.008,-0.011,103.0,109.0,101.0,13.3,1505.4,325.4,-0.7,1.9,2470.134,13.35,0.018,295.2
2019-08-26T02:04:22,42.805,6.029,-0.019,0.04,0.001,102.0,109.0,99.0,13.3,1505.4,325.7,-0.7,1.8,2470.1,13.34,0.044,334.6
2019-08-26T02:07:23,42.805,6.029,0.001,0.019,-0.034,103.0,108.0,100.0,13.3,1505.4,327.1,-0.7,1.8,2470.104,13.35,0.019,3.0
2019-08-26T02:10:24,42.805,6.029,-0.022,0.018,-0.041,101.0,109.0,101.0,13.3,1505.4,324.7,-0.7,1.8,2470.113,13.34,0.028,309.3
2019-08-26T02:13:25,42.805,6.029,-0.029,0.012,-0.049,103.0,108.0,100.0,13.4,1505.4,325.3,-0.7,1.8,2470.139,13.34,0.031,292.5
2019-08-26T02:16:26,42.805,6.029,-0.008,0.013,-0.032,102.0,110.0,100.0,13.4,1505.4,323.2,-0.7,1.8,2470.11,13.34,0.015,328.4
2019-08-26T02:19:27,42.805,6.029,-0.013,0.0,-0.02,104.0,109.0,99.0,13.4,1505.4,327.2,-0.7,1.9,2470.096,13.34,0.013,270.0
2019-08-26T02:22:28,42.805,6.029,-0.015,0.03,-0.029,103.0,109.0,99.0,13.4,1505.4,327.9,-0.7,1.8,2470.067,13.34,0.033,333.4
2019-08-26T02:25:29,42.805,6.029,-0.005,0.024,-0.023,101.0,108.0,101.0,13.4,1505.4,325.4,-0.7,1.8,2470.167,13.34,0.024,348.2
2019-08-26T02:28:30,42.805,6.029,-0.002,0.0,-0.021,103.0,109.0,98.0,13.4,1505.4,324.5,-0.7,1.8,2470.144,13.34,0.002,270.0
2019-08-26T02:31:31,42.805,6.029,-0.004,0.01,-0.018,103.0,108.0,99.0,13.3,1505.4,324.5,-0.7,1.8,2470.077,13.34,0.01,338.2
2019-08-26T02:34:32,42.805,6.029,0.011,0.034,-0.023,103.0,110.0,99.0,13.4,1505.4,325.4,-0.7,1.8,2470.145,13.34,0.035,17.9
2019-08-26T02:37:33,42.805,6.029,-0.002,0.016,0.011,103.0,109.0,100.0,13.3,1505.4,326.3,-0.7,1.8,2470.123,13.34,0.016,352.9
2019-08-26T02:40:34,42.805,6.029,-0.029,0.014,-0.019,103.0,110.0,99.0,13.4,1505.4,323.3,-0.7,1.9,2470.091,13.34,0.032,295.8
2019-08-26T02:43:35,42.805,6.029,-0.019,-0.001,-0.018,103.0,109.0,99.0,13.4,1505.4,326.6,-0.7,1.8,2470.089,13.34,0.019,267.0
2019-08-26T02:46:36,42.805,6.029,-0.001,0.014,-0.032,102.0,108.0,100.0,13.3,1505.4,324.9,-0.7,1.8,2470.115,13.34,0.014,355.9
2019-08-26T02:49:37,42.805,6.029,0.004,-0.004,-0.067,102.0,109.0,100.0,13.3,1505.4,325.6,-0.7,1.8,2470.104,13.34,0.005,135.0
2019-08-26T02:52:38,42.805,6.029,0.0,0.015,0.003,102.0,108.0,99.0,13.4,1505.4,323.9,-0.7,1.8,2470.11,13.34,0.015,0.0
2019-08-26T02:55:39,42.805,6.029,-0.013,-0.003,-0.018,103.0,110.0,98.0,13.4,1505.4,328.0,-0.7,1.8,2470.136,13.34,0.013,257.0
2019-08-26T02:58:40,42.805,6.029,-0.033,0.038,-0.042,102.0,108.0,100.0,13.3,1505.4,324.4,-0.7,1.8,2470.084,13.34,0.05,319.0
2019-08-26T03:01:41,42.805,6.029,-0.011,0.045,-0.034,104.0,108.0,100.0,13.4,1505.4,326.8,-0.8,1.8,2470.118,13.34,0.046,346.3
2019-08-26T03:04:42,42.805,6.029,-0.033,0.013,-0.015,102.0,108.0,99.0,13.4,1505.4,324.0,-0.7,1.9,2470.106,13.34,0.035,291.5
2019-08-26T03:07:43,42.805,6.029,-0.01,0.017,-0.003,103.0,108.0,98.0,13.4,1505.4,325.5,-0.7,1.8,2470.098,13.34,0.019,329.5
2019-08-26T03:10:44,42.805,6.029,-0.007,0.012,-0.014,103.0,110.0,99.0,13.3,1505.4,324.3,-0.7,1.8,2470.091,13.34,0.013,329.7
2019-08-26T03:13:45,42.805,6.029,-0.007,0.027,-0.027,101.0,109.0,99.0,13.4,1505.4,324.9,-0.7,1.8,2470.124,13.34,0.027,345.5
2019-08-26T03:16:46,42.805,6.029,-0.004,-0.005,0.0,102.0,110.0,100.0,13.4,1505.4,327.9,-0.7,1.9,2470.049,13.34,0.006,218.7
2019-08-26T03:19:47,42.805,6.029,-0.034,0.023,-0.027,103.0,107.0,99.0,13.3,1505.4,324.3,-0.7,1.8,2470.118,13.34,0.041,304.1
2019-08-26T03:22:48,42.805,6.029,-0.011,0.013,0.016,102.0,109.0,100.0,13.4,1505.4,327.1,-0.7,1.8,2470.127,13.34,0.017,319.8
2019-08-26T03:25:49,42.805,6.029,-0.014,0.016,-0.045,102.0,109.0,100.0,13.4,1505.4,328.0,-0.7,1.8,2470.115,13.34,0.021,318.8
2019-08-26T03:28:50,42.805,6.029,-0.021,0.016,-0.014,103.0,109.0,100.0,13.3,1505.4,326.9,-0.7,1.8,2470.118,13.34,0.026,307.3
2019-08-26T03:31:51,42.805,6.029,-0.011,0.026,-0.014,107.0,108.0,99.0,13.4,1505.4,328.0,-0.7,1.9,2470.113,13.34,0.028,337.1
2019-08-26T03:34:52,42.805,6.029,-0.032,0.028,-0.014,103.0,108.0,99.0,13.4,1505.4,326.9,-0.7,1.9,2470.134,13.34,0.042,311.2
2019-08-26T03:37:53,42.805,6.029,0.004,0.012,0.004,104.0,110.0,101.0,13.4,1505.4,328.2,-0.7,1.8,2470.134,13.34,0.012,18.4
2019-08-26T03:40:54,42.805,6.029,-0.04,-0.004,-0.023,104.0,109.0,99.0,13.4,1505.4,326.1,-0.7,1.8,2470.121,13.34,0.04,264.3
2019-08-26T03:43:55,42.805,6.029,-0.019,0.013,-0.038,104.0,109.0,100.0,13.4,1505.4,326.5,-0.7,1.8,2470.084,13.34,0.023,304.4
2019-08-26T03:46:56,42.805,6.029,-0.005,0.021,-0.003,104.0,109.0,99.0,13.3,1505.4,325.0,-0.7,1.8,2470.127,13.34,0.021,346.6
2019-08-26T03:49:57,42.805,6.029,-0.008,0.0,-0.016,104.0,109.0,99.0,13.4,1505.4,326.7,-0.7,1.8,2470.132,13.34,0.008,270.0
2019-08-26T03:52:58,42.805,6.029,-0.016,0.004,-0.035,103.0,110.0,100.0,13.4,1505.4,326.4,-0.7,1.8,2470.128,13.34,0.016,284.0
2019-08-26T03:55:59,42.805,6.029,0.012,0.012,0.012,103.0,109.0,100.0,13.4,1505.4,324.8,-0.7,1.8,2470.149,13.34,0.016,45.0
2019-08-26T03:59:00,42.805,6.029,0.006,0.024,0.001,104.0,107.0,100.0,13.4,1505.4,327.1,-0.7,1.8,2470.107,13.34,0.024,14.0
2019-08-26T04:02:01,42.805,6.029,-0.015,0.017,-0.033,104.0,109.0,100.0,13.4,1505.4,326.8,-0.7,1.8,2470.138,13.34,0.022,318.6
2019-08-26T04:05:02,42.805,6.029,0.0,0.011,-0.01,102.0,110.0,99.0,13.3,1505.4,324.9,-0.7,1.8,2470.136,13.34,0.011,0.0
2019-08-26T04:08:03,42.805,6.029,0.002,0.009,-0.039,102.0,109.0,100.0,13.4,1505.4,324.7,-0.7,1.8,2470.103,13.34,0.009,12.5
2019-08-26T04:11:04,42.805,6.029,0.007,0.012,-0.02,104.0,109.0,101.0,13.4,1505.4,325.7,-0.7,1.8,2470.112,13.34,0.013,30.3
2019-08-26T04:14:05,42.805,6.029,0.0,0.014,-0.015,105.0,109.0,100.0,13.4,1505.4,324.2,-0.7,1.8,2470.121,13.34,0.014,0.0
2019-08-26T04:17:06,42.805,6.029,-0.015,0.032,-0.038,103.0,110.0,100.0,13.4,1505.4,325.1,-0.7,1.8,2470.084,13.34,0.035,334.9
2019-08-26T04:20:07,42.805,6.029,-0.022,0.035,-0.03,104.0,109.0,100.0,13.4,1505.4,323.3,-0.7,1.8,2470.124,13.34,0.041,327.8
2019-08-26T04:23:08,42.805,6.029,0.005,0.039,-0.003,104.0,109.0,100.0,13.3,1505.4,324.4,-0.7,1.9,2470.1,13.34,0.039,7.3
2019-08-26T04:26:09,42.805,6.029,0.004,0.015,-0.03,104.0,109.0,100.0,13.3,1505.4,326.1,-0.7,1.8,2470.095,13.34,0.015,14.9
2019-08-26T04:29:10,42.805,6.029,-0.002,0.019,-0.022,103.0,109.0,101.0,13.4,1505.4,325.4,-0.7,1.8,2470.074,13.34,0.019,354.0
2019-08-26T04:32:11,42.805,6.029,-0.007,-0.002,-0.009,103.0,109.0,100.0,13.4,1505.4,324.8,-0.7,1.8,2470.096,13.34,0.007,254.1
2019-08-26T04:35:12,42.805,6.029,0.007,0.005,0.006,105.0,111.0,99.0,13.3,1505.4,323.9,-0.7,1.8,2470.082,13.34,0.008,54.5
2019-08-26T04:38:13,42.805,6.029,-0.012,0.011,0.0,103.0,109.0,100.0,13.4,1505.4,326.6,-0.7,1.8,2470.115,13.34,0.016,312.5
2019-08-26T04:41:14,42.805,6.029,-0.006,-0.01,-0.008,104.0,110.0,100.0,13.3,1505.4,325.1,-0.7,1.8,2470.109,13.34,0.011,211.0
2019-08-26T04:44:15,42.805,6.029,-0.018,0.001,-0.01,103.0,109.0,100.0,13.4,1505.4,325.8,-0.7,1.8,2470.088,13.34,0.018,273.2
2019-08-26T04:47:16,42.805,6.029,-0.016,0.022,0.004,103.0,111.0,99.0,13.4,1505.4,322.9,-0.7,1.8,2470.073,13.34,0.027,324.0
2019-08-26T04:50:17,42.805,6.029,-0.007,0.009,0.002,102.0,109.0,100.0,13.4,1505.4,327.6,-0.7,1.8,2470.106,13.34,0.011,322.1
2019-08-26T04:53:18,42.805,6.029,-0.018,0.01,-0.044,103.0,110.0,99.0,13.3,1505.4,328.1,-0.7,1.9,2470.057,13.34,0.02,299.1
2019-08-26T04:56:19,42.805,6.029,-0.005,-0.008,-0.042,103.0,109.0,100.0,13.4,1505.4,328.1,-0.7,1.8,2470.092,13.34,0.009,212.0
2019-08-26T04:59:20,42.805,6.029,-0.01,0.02,-0.018,102.0,110.0,99.0,13.3,1505.4,325.6,-0.7,1.8,2470.117,13.34,0.022,333.4
2019-08-26T05:02:21,42.805,6.029,-0.001,0.026,0.011,102.0,110.0,100.0,13.4,1505.4,326.9,-0.8,1.8,2470.092,13.34,0.026,357.8
2019-08-26T05:05:22,42.805,6.029,0.002,0.015,-0.014,103.0,110.0,100.0,13.4,1505.4,327.7,-0.7,1.9,2470.142,13.34,0.015,7.6
2019-08-26T05:08:23,42.805,6.029,-0.004,0.02,-0.014,103.0,109.0,99.0,13.4,1505.4,327.2,-0.7,1.9,2470.123,13.34,0.02,348.7
2019-08-26T05:11:24,42.805,6.029,-0.003,-0.001,-0.012,105.0,110.0,99.0,13.4,1505.4,326.4,-0.7,1.9,2470.067,13.34,0.003,251.6
2019-08-26T05:14:25,42.805,6.029,0.006,0.012,-0.012,106.0,108.0,99.0,13.4,1505.4,326.2,-0.7,1.8,2470.106,13.34,0.013,26.6
2019-08-26T05:17:26,42.805,6.029,0.005,0.032,0.021,103.0,110.0,100.0,13.4,1505.4,324.5,-0.7,1.8,2470.1,13.34,0.032,8.9
2019-08-26T05:20:27,42.805,6.029,-0.012,0.027,0.004,105.0,110.0,101.0,13.4,1505.4,324.3,-0.7,1.8,2470.103,13.34,0.029,336.0
2019-08-26T05:23:28,42.805,6.029,-0.004,0.031,-0.021,105.0,110.0,100.0,13.4,1505.4,327.6,-0.7,1.8,2470.066,13.34,0.031,352.7
2019-08-26T05:26:29,42.805,6.029,-0.015,0.031,-0.013,105.0,111.0,100.0,13.3,1505.4,326.2,-0.7,1.8,2470.118,13.34,0.034,334.2
2019-08-26T05:29:30,42.805,6.029,0.01,-0.001,-0.015,104.0,110.0,100.0,13.4,1505.4,323.1,-0.7,1.8,2470.108,13.34,0.01,95.7
2019-08-26T05:32:31,42.805,6.029,0.003,0.004,-0.017,104.0,110.0,101.0,13.3,1505.4,325.5,-0.7,1.9,2470.112,13.34,0.005,36.9
2019-08-26T05:35:32,42.805,6.029,-0.034,0.006,-0.033,105.0,110.0,100.0,13.4,1505.4,326.3,-0.7,1.8,2470.067,13.34,0.034,280.0
2019-08-26T05:38:33,42.805,6.029,-0.023,-0.001,-0.038,104.0,109.0,102.0,13.4,1505.4,325.3,-0.7,1.8,2470.118,13.34,0.023,267.5
2019-08-26T05:41:34,42.805,6.029,0.0,0.016,-0.006,104.0,110.0,100.0,13.4,1505.4,323.6,-0.7,1.9,2470.05,13.35,0.016,0.0
2019-08-26T05:44:35,42.805,6.029,-0.007,0.027,-0.001,104.0,111.0,100.0,13.3,1505.4,324.2,-0.7,1.9,2470.066,13.35,0.027,345.5
2019-08-26T05:47:36,42.805,6.029,-0.002,0.016,0.011,102.0,111.0,99.0,13.4,1505.4,323.9,-0.7,1.8,2470.058,13.35,0.016,352.9
2019-08-26T05:50:37,42.805,6.029,-0.02,0.013,-0.026,104.0,109.0,100.0,13.4,1505.4,323.2,-0.7,1.8,2470.039,13.35,0.023,303.0
2019-08-26T05:53:38,42.805,6.029,0.002,0.009,-0.013,105.0,109.0,100.0,13.4,1505.4,328.1,-0.7,1.8,2470.103,13.34,0.009,12.5
2019-08-26T05:56:39,42.805,6.029,-0.002,0.014,-0.025,105.0,110.0,100.0,13.4,1505.4,325.8,-0.7,1.8,2470.081,13.35,0.014,351.9
2019-08-26T05:59:40,42.805,6.029,-0.013,0.023,-0.016,104.0,110.0,99.0,13.4,1505.4,325.7,-0.7,1.8,2470.082,13.34,0.026,330.5
2019-08-26T06:02:41,42.805,6.029,0.022,0.015,0.013,104.0,110.0,100.0,13.4,1505.4,326.2,-0.7,1.8,2470.09,13.35,0.026,55.7
2019-08-26T06:05:42,42.805,6.029,-0.001,0.019,-0.037,104.0,110.0,100.0,13.4,1505.4,323.4,-0.7,1.8,2470.069,13.34,0.019,357.0
2019-08-26T06:08:43,42.805,6.029,0.0,0.003,-0.054,105.0,110.0,100.0,13.4,1505.4,323.4,-0.7,1.8,2470.091,13.34,0.003,0.0
2019-08-26T06:11:44,42.805,6.029,-0.005,-0.002,-0.06,104.0,110.0,101.0,13.4,1505.4,324.1,-0.7,1.8,2470.085,13.34,0.005,248.2
2019-08-26T06:14:45,42.805,6.029,0.006,-0.008,-0.049,105.0,110.0,100.0,13.4,1505.4,324.1,-0.7,1.9,2470.144,13.34,0.01,143.1
2019-08-26T06:17:46,42.805,6.029,-0.008,-0.003,-0.016,105.0,110.0,100.0,13.3,1505.3,325.8,-0.7,1.9,2470.095,13.33,0.008,249.4
2019-08-26T06:20:47,42.805,6.029,0.017,0.021,-0.012,105.0,110.0,101.0,13.3,1505.3,327.6,-0.7,1.8,2470.069,13.33,0.027,39.0
2019-08-26T06:23:48,42.805,6.029,-0.011,0.02,0.009,104.0,111.0,100.0,13.4,1505.3,325.4,-0.7,1.9,2470.102,13.33,0.022,331.2
2019-08-26T06:26:49,42.805,6.029,0.019,-0.013,-0.036,103.0,110.0,101.0,13.3,1505.3,324.7,-0.7,1.9,2470.063,13.33,0.023,124.4
2019-08-26T06:29:50,42.805,6.029,0.01,0.003,-0.019,105.0,109.0,101.0,13.4,1505.3,326.6,-0.7,1.8,2470.064,13.33,0.01,73.3
2019-08-26T06:32:51,42.805,6.029,-0.002,0.019,0.003,104.0,110.0,100.0,13.4,1505.3,323.9,-0.7,1.8,2470.09,13.33,0.019,354.0
2019-08-26T06:35:52,42.805,6.029,-0.005,0.018,-0.016,104.0,110.0,101.0,13.4,1505.3,325.4,-0.7,1.9,2470.09,13.33,0.018,344.5
2019-08-26T06:38:53,42.805,6.029,0.004,0.026,-0.016,104.0,112.0,100.0,13.4,1505.3,327.7,-0.7,1.9,2470.079,13.33,0.026,8.7
2019-08-26T06:41:54,42.805,6.029,0.007,0.012,-0.053,103.0,109.0,99.0,13.4,1505.3,328.2,-0.7,1.8,2470.103,13.33,0.013,30.3
2019-08-26T06:44:55,42.805,6.029,0.016,0.027,-0.01,102.0,108.0,100.0,13.3,1505.3,328.2,-0.7,1.8,2470.099,13.33,0.031,30.7
2019-08-26T06:47:56,42.805,6.029,0.017,0.005,-0.02,104.0,110.0,99.0,13.4,1505.3,327.9,-0.7,1.9,2470.102,13.33,0.017,73.6
2019-08-26T06:50:57,42.805,6.029,0.023,0.005,-0.023,104.0,109.0,99.0,13.3,1505.3,326.8,-0.7,1.8,2470.064,13.33,0.023,77.7
2019-08-26T06:53:58,42.805,6.029,0.005,-0.004,-0.014,103.0,109.0,100.0,13.4,1505.3,327.8,-0.7,1.8,2470.066,13.33,0.006,128.7
2019-08-26T06:56:59,42.805,6.029,0.005,0.01,-0.021,104.0,108.0,100.0,13.3,1505.3,326.8,-0.7,1.8,2470.089,13.33,0.011,26.6
2019-08-26T07:00:00,42.805,6.029,0.02,0.022,-0.018,103.0,109.0,101.0,13.4,1505.3,323.1,-0.7,1.8,2470.075,13.33,0.029,42.3
2019-08-26T07:03:01,42.805,6.029,0.008,0.01,-0.035,104.0,110.0,100.0,13.4,1505.3,324.8,-0.7,1.8,2470.079,13.33,0.012,38.7
2019-08-26T07:06:02,42.805,6.029,-0.037,-0.007,-0.1,104.0,110.0,101.0,13.3,1505.3,322.8,-0.7,1.8,2470.087,13.33,0.037,259.3
2019-08-26T07:09:03,42.805,6.029,0.001,0.005,-0.027,102.0,109.0,100.0,13.3,1505.3,323.2,-0.7,1.8,2470.07,13.33,0.005,11.3
2019-08-26T07:12:04,42.805,6.029,0.007,-0.005,0.039,103.0,108.0,101.0,13.4,1505.3,323.2,-0.7,1.8,2470.057,13.33,0.008,125.5
2019-08-26T07:15:05,42.805,6.029,-0.032,0.01,-0.052,104.0,109.0,101.0,13.4,1505.3,324.4,-0.7,1.8,2470.064,13.33,0.033,287.4
2019-08-26T07:18:06,42.805,6.029,0.009,0.014,-0.026,105.0,110.0,100.0,13.4,1505.3,324.4,-0.7,1.9,2470.062,13.33,0.016,32.7
2019-08-26T07:21:07,42.805,6.029,-0.025,0.018,-0.022,103.0,109.0,101.0,13.4,1505.3,328.0,-0.7,1.8,2470.052,13.33,0.03,305.8
2019-08-26T07:24:08,42.805,6.029,-0.034,0.003,-0.068,104.0,108.0,99.0,13.4,1505.3,328.4,-0.7,1.8,2470.057,13.33,0.034,275.0
2019-08-26T07:27:09,42.805,6.029,-0.007,-0.014,-0.032,104.0,110.0,100.0,13.4,1505.3,327.8,-0.7,1.8,2470.052,13.33,0.015,206.6
2019-08-26T07:30:10,42.805,6.029,-0.017,0.014,-0.045,104.0,109.0,100.0,13.3,1505.3,327.2,-0.7,1.9,2470.088,13.33,0.022,309.5
2019-08-26T07:33:11,42.805,6.029,0.025,-0.003,-0.028,105.0,111.0,99.0,13.4,1505.3,324.9,-0.7,1.8,2470.062,13.33,0.025,96.8
2019-08-26T07:36:12,42.805,6.029,0.025,-0.016,-0.015,104.0,108.0,100.0,13.4,1505.3,324.5,-0.8,1.9,2470.065,13.33,0.029,122.6
2019-08-26T07:39:13,42.805,6.029,0.013,0.012,0.004,104.0,108.0,99.0,13.4,1505.3,324.8,-0.7,1.8,2470.073,13.33,0.017,47.3
2019-08-26T07:42:14,42.805,6.029,0.021,0.004,0.025,103.0,111.0,100.0,13.4,1505.3,324.4,-0.7,1.8,2470.083,13.33,0.021,79.2
2019-08-26T07:45:15,42.805,6.029,0.025,0.011,-0.022,103.0,109.0,98.0,13.4,1505.3,324.0,-0.8,1.8,2470.046,13.33,0.027,66.3
2019-08-26T07:48:16,42.805,6.029,0.026,0.012,-0.015,103.0,108.0,99.0,13.4,1505.3,324.8,-0.7,1.9,2470.09,13.33,0.028,65.2
2019-08-26T07:51:17,42.805,6.029,0.004,0.0,-0.024,103.0,109.0,101.0,13.4,1505.3,324.1,-0.7,1.8,2470.017,13.33,0.004,90.0
2019-08-26T07:54:18,42.805,6.029,0.004,-0.014,-0.045,105.0,107.0,99.0,13.4,1505.3,324.2,-0.7,1.8,2470.025,13.33,0.014,164.1
2019-08-26T07:57:19,42.805,6.029,0.0,0.001,-0.014,104.0,108.0,99.0,13.4,1505.3,325.4,-0.7,1.8,2470.028,13.33,0.001,0.0
2019-08-26T08:00:20,42.805,6.029,0.006,0.014,-0.001,106.0,113.0,101.0,13.4,1505.3,325.4,-0.7,1.8,2470.035,13.33,0.015,23.2
2019-08-26T08:03:21,42.805,6.029,0.027,0.007,0.012,104.0,109.0,101.0,13.4,1505.3,326.7,-0.7,1.8,2470.033,13.33,0.027,75.5
2019-08-26T08:06:22,42.805,6.029,0.001,0.03,-0.028,104.0,111.0,102.0,13.4,1505.3,327.6,-0.7,1.8,2470.053,13.33,0.03,1.9
2019-08-26T08:09:23,42.805,6.029,-0.027,0.003,-0.032,104.0,107.0,100.0,13.4,1505.3,327.1,-0.7,1.9,2470.017,13.33,0.027,276.3
2019-08-26T08:12:24,42.805,6.029,0.01,0.008,-0.036,104.0,109.0,100.0,13.3,1505.3,327.6,-0.7,1.9,2470.04,13.33,0.012,51.3
2019-08-26T08:15:25,42.805,6.029,0.005,-0.011,0.003,104.0,108.0,100.0,13.4,1505.3,327.2,-0.7,1.9,2470.035,13.33,0.012,155.6
2019-08-26T08:18:26,42.805,6.029,0.031,0.0,-0.021,104.0,108.0,101.0,13.4,1505.3,324.6,-0.7,1.8,2470.011,13.33,0.03,90.0
2019-08-26T08:21:27,42.805,6.029,-0.012,-0.019,-0.029,104.0,107.0,101.0,13.4,1505.3,323.5,-0.7,1.8,2470.022,13.33,0.022,212.3
2019-08-26T08:24:28,42.805,6.029,-0.004,0.007,-0.052,103.0,108.0,101.0,13.4,1505.3,325.1,-0.7,1.8,2470.042,13.33,0.008,330.3
2019-08-26T08:27:29,42.805,6.029,0.004,-0.009,-0.022,103.0,107.0,101.0,13.4,1505.3,324.2,-0.7,1.8,2470.016,13.33,0.009,156.0
2019-08-26T08:30:30,42.805,6.029,0.012,0.007,-0.03,105.0,109.0,100.0,13.4,1505.3,326.8,-0.7,1.8,2470.067,13.33,0.013,59.7
2019-08-26T08:33:31,42.805,6.029,0.001,0.019,-0.023,103.0,108.0,101.0,13.4,1505.3,324.8,-0.7,1.8,2470.038,13.33,0.019,3.0
2019-08-26T08:36:32,42.805,6.029,0.019,-0.002,-0.027,104.0,107.0,100.0,13.4,1505.3,326.8,-0.7,1.9,2470.012,13.33,0.019,96.0
2019-08-26T08:39:33,42.805,6.029,0.016,-0.01,-0.027,103.0,107.0,100.0,13.3,1505.3,327.7,-0.7,1.8,2470.004,13.33,0.018,122.0
2019-08-26T08:42:34,42.805,6.029,0.012,0.006,-0.004,106.0,107.0,101.0,13.3,1505.3,324.4,-0.7,1.8,2470.077,13.33,0.013,63.4
2019-08-26T08:45:35,42.805,6.029,0.022,-0.007,0.004,106.0,108.0,100.0,13.4,1505.3,326.4,-0.7,1.8,2470.054,13.33,0.023,107.6
2019-08-26T08:48:36,42.805,6.029,0.034,-0.008,0.022,104.0,108.0,100.0,13.3,1505.3,324.6,-0.7,1.8,2470.038,13.33,0.034,103.2
2019-08-26T08:51:37,42.805,6.029,0.01,-0.005,-0.008,105.0,107.0,101.0,13.3,1505.3,326.4,-0.7,1.8,2469.996,13.33,0.011,116.6
2019-08-26T08:54:38,42.805,6.029,0.004,0.003,-0.007,103.0,108.0,101.0,13.4,1505.3,326.4,-0.7,1.8,2470.039,13.33,0.005,53.1
2019-08-26T08:57:39,42.805,6.029,0.025,0.0,-0.009,104.0,107.0,102.0,13.4,1505.3,323.9,-0.7,1.8,2470.03,13.33,0.025,90.0
2019-08-26T09:00:40,42.805,6.029,-0.009,-0.013,0.002,106.0,107.0,100.0,13.4,1505.3,328.2,-0.7,1.8,2469.992,13.33,0.015,214.7
2019-08-26T09:03:41,42.805,6.029,0.002,0.018,-0.014,103.0,105.0,101.0,13.4,1505.3,325.0,-0.7,1.9,2470.01,13.33,0.018,6.3
2019-08-26T09:06:42,42.805,6.029,0.023,-0.007,-0.013,104.0,110.0,101.0,13.4,1505.3,324.0,-0.7,1.9,2470.011,13.33,0.024,106.9
2019-08-26T09:09:43,42.805,6.029,0.026,0.001,-0.032,104.0,108.0,100.0,13.4,1505.3,328.1,-0.7,1.8,2470.022,13.33,0.026,87.8
2019-08-26T09:12:44,42.805,6.029,0.01,-0.023,0.009,104.0,109.0,101.0,13.4,1505.3,324.7,-0.7,1.8,2470.044,13.33,0.025,156.5
2019-08-26T09:15:45,42.805,6.029,0.012,-0.002,0.009,106.0,107.0,102.0,13.4,1505.3,326.8,-0.7,1.9,2470.02,13.33,0.012,99.5
2019-08-26T09:18:46,42.805,6.029,0.0,0.015,-0.018,104.0,106.0,101.0,13.4,1505.3,323.9,-0.7,1.9,2470.022,13.33,0.015,0.0
2019-08-26T09:21:47,42.805,6.029,-0.001,0.007,-0.018,103.0,106.0,100.0,13.3,1505.3,327.7,-0.7,1.9,2470.028,13.33,0.007,351.9
2019-08-26T09:24:48,42.805,6.029,0.053,-0.02,-0.002,106.0,106.0,102.0,13.4,1505.3,326.9,-0.7,1.8,2470.016,13.33,0.056,110.7
2019-08-26T09:27:49,42.805,6.029,0.0,0.002,-0.053,103.0,107.0,100.0,13.4,1505.3,326.9,-0.7,1.8,2470.003,13.33,0.002,0.0
2019-08-26T09:30:50,42.805,6.029,0.003,-0.014,-0.019,105.0,107.0,101.0,13.4,1505.3,326.7,-0.7,1.9,2469.986,13.33,0.014,167.9